Weather Roundup
Issued by NWS Chicago, IL

Home | Current Version | Previous Version | Graphics & Text | Print | Product List | Glossary On
Versions: 1 2 3 4 5 6 7 8 9 10 11 12 13 14 15 16 17 18 19 20 21 22 23 24 25 26 27 28 29 30 31 32 33 34 35 36 37 38 39 40 41 42 43 44 45 46 47 48 49 50
000
NZUS59 KLOT 290006
HRRLOT

CHICAGO AREA WEATHER ROUNDUP
NATIONAL WEATHER SERVICE CHICAGO/ROMEOVILLE IL
600 PM CST WED JAN 28 2015

NOTE: "FAIR" INDICATES FEW OR NO CLOUDS BELOW 12,000 FEET WITH NO
SIGNIFICANT WEATHER AND/OR OBSTRUCTIONS TO VISIBILITY.

* THESE STATIONS ARE NOT UNDER NWS QUALITY CONTROL. THEY ALSO MAY NOT
  REPORT WEATHER SUCH AS PRECIPITATION OR FOG.

ILZ005-006-012>014-019>023-290100-
NORTHEAST ILLINOIS

CITY           SKY/WX    TMP DP  RH WIND       PRES   REMARKS
OHARE          CLOUDY    31  21  66 SE16G23   29.99F WCI  20
6HR MIN TEMP:  31; 6HR MAX TEMP:  33;

MIDWAY         CLOUDY    34  22  61 SE14G28   30.01F WCI  25
6HR MIN TEMP:  33; 6HR MAX TEMP:  36;

AURORA         MOCLDY    32  23  69 SE18      29.97F WCI  20
6HR MIN TEMP:  32; 6HR MAX TEMP:  35;

LANSING*       CLOUDY    32  21  65 SE13G22   30.04F WCI  22
JOLIET*        MOCLDY    32  24  72 SE14      30.00F WCI  22
WAUKEGAN       CLOUDY    31  23  72 SE18G28   29.98F WCI  19
6HR MIN TEMP:  31; 6HR MAX TEMP:  33;

DUPAGE AIRPORT MOCLDY    32  22  66 SE15G22   29.96F WCI  22
6HR MIN TEMP:  31; 6HR MAX TEMP:  34;

WHEELING       CLOUDY    32  21  64 SE16      30.01F WCI  21
6HR MIN TEMP:  32; 6HR MAX TEMP:  34;

KANKAKEE*      PTCLDY    33  26  76 SE13      30.02F WCI  24
MORRIS*        PTCLDY    33  27  77 SE16      29.98F WCI  23
LEWIS AIRPORT* MOCLDY    32  24  72 SE16G22   29.99F WCI  21
NORTHERLY IS     N/A     32  24  73 SE18        N/A  WCI  20
$$

WIZ051-052-058>065-066-070>072-290100-
SOUTHEAST WISCONSIN

CITY           SKY/WX    TMP DP  RH WIND       PRES   REMARKS
MILWAUKEE      CLOUDY    32  22  66 S18       29.98F WCI  20
6HR MIN TEMP:  32; 6HR MAX TEMP:  34;

KENOSHA*       CLOUDY    32  22  66 SE16G28   29.98F WCI  21
RACINE*        CLOUDY    32  22  66 S20G29    30.00F WCI  20
BURLINGTON     CLOUDY    29  21  71 SE10G17   29.94F WCI  20
WAUKESHA       CLOUDY    28  19  69 SE16      29.96F WCI  17
WEST BEND      CLOUDY    30  21  69 SE12G20   29.95F WCI  21
$$

INZ001>003-010>013-019-020-290100-
NORTHWEST INDIANA

CITY           SKY/WX    TMP DP  RH WIND       PRES   REMARKS
GARY*          CLOUDY    34  16  47 SE17G29   30.04F WCI  23
MICHIGAN CITY* NOT AVBL
RENSSELAER*    NOT AVBL
VALPARAISO     MOCLDY    30  20  66 SE14G21   30.06F WCI  19
$$

LMZ740>746-290100-
SOUTHERN LAKE MICHIGAN

STATION/POSITION TIME  SKY/WX   TEMP WIND        PRES    VSBY
                                AIR  DIR/SP/G
                 (UTC)          (F)  (DEG/KT/KT) (MB)    (MI)
HARRISON CRIB    0000            32  140/ 19/ 25   N/A
BURNHAM HARBOR   0000            32  140/ 12/ 20   N/A
CALUMET HARBOR   2300            33  130/ 16/ 20   N/A
BURNS HARBOR     NOT AVBL
MICHIGAN CITY    0000            30  120/ 16/ 23   N/A
$$

ABBREVIATIONS USED IN REMARKS
   TC - TEMPERATURE IN CELSIUS
  WCI - WIND CHILL INDEX
   HX - HEAT INDEX
  VSB - VISIBILITY
$$



USA.gov is the U.S. government's official web portal to all federal, state and local government web resources and services.